Back to catalog

RASSVET-3 24

AlivePO
NORAD 100090·PAYLOAD·🇷🇺 Russia

Launched Jul 19, 2026 from Plesetsk Cosmodrome

Loading…

Next Passes (next 24 hours)

TLE

FreshSource: Space-Track

Epoch: Sep 14, 2026, 10:29 UTC

1 A0090U 26165H   26257.43740898 -.00044571  00000-0 -46425-3 0  9991
2 A0090  82.2997 167.9671 0008475 195.3657 164.7345 15.64653548  8921

Track RASSVET-3 24 in real time with AllMySat

Download on the App Store